Location: Cold Norton
(51.6667°N, 0.6667°E)
Time: 15:44:56
(UTC+00:00)

COSMOS 2406 - Pass Details

Date: 18 November 2025
Orbit: 845 x 859 km, 71.0° (Epoch: 12 December)

Event Time Altitude Azimuth Distance (km) Brightness Sun altitude
Rises 18:05:18 0° 329° (NNW) 3,418 6.7 -18.6°
Reaches altitude 10° 18:07:46 10° 330° (NNW) 2,480 5.9 -18.9°
Maximum altitude 18:13:29 83° 59° (ENE) 860 3.1 -19.8°
Enters shadow 18:19:02 11° 148° (SSE) 2,421 5.3 -20.7°
